"Pseudo-MPEC" for ses001

Created 2024 Sep 5 18:22:43 UT using Find_Orb

Click here for an explanation of pseudo-MPECs

 
 Astrometry: 
     ses001 * C2024 08 31.03776 05 01 16.85 +11 14 26.3    ~8VJ7 15.3 RVNEOCPA98
     ses001   C2024 08 31.03851 05 01 16.59 +11 14 28.8    ~8VJ7 16.0 RVNEOCPA98
     ses001   C2024 08 31.03998 05 01 16.10 +11 14 33.1    ~8VJ7 15.3 RVNEOCPA98
     ses001   C2024 08 31.04145 05 01 15.60 +11 14 39.0    ~8VJ7 16.1 RVNEOCPA98
     ses001   C2024 08 31.04365 05 01 14.82 +11 14 46.5    ~8VJ7 15.5 RVNEOCPA98
     ses001   C2024 08 31.04439 05 01 14.58 +11 14 49.8    ~8VJ7 15.4 RVNEOCPA98
     ses001   C2024 08 31.04586 05 01 14.03 +11 14 54.8    ~8VJ7 16.1 RVNEOCPA98

Station data:
(A98) Observatory Mazzarot-1, Baran'  (N54.491081 E30.209200)  Belarus.
   Observer S. Shurpakov. 0.41-m f/3.9 Newtonian reflector + CCD.

Orbital elements:  ses001
   Perihelion 2024 Jun 12.05816 +/- 23.9 TT =  1:23:44 (JD 2460473.55816)
Epoch 2024 Aug 31.0 TT = JDT 2460553.5   Earth MOID: 0.0106      AutoNEOCP
M 104.15432461 +/- 52               (J2000 ecliptic)
n   1.30287620 +/- 0.696            Peri.  217.15802 +/- 45
a   0.83023418 +/- 0.296            Node   344.70505 +/- 16
e   0.3828148 +/- 0.19              Incl.  140.89034 +/- 56
P   0.756/276.307d         H 16.88  G  0.15   U 12.5  SR
q 0.51240821 +/- 0.284    Q 1.14806016 +/- 1.64
From 7 observations 2024 Aug. 31 (11.7 min); mean residual 0".29
Residuals in arcseconds: 
240831 A98  .14-  .36+    240831 A98  .26+  .02-    240831 A98  .34-  .13+    
240831 A98  .15-  .20+    240831 A98  .00   .33-    
240831 A98  .12+  .71-    240831 A98  .24+  .35+    

Ephemerides (geocentric):
Date (UTC) HH   RA             Dec           delta  r     elong  mag " sig PA
---- --------  ------------   ------------  ------ ------ -----  --- --------
2024 09 05 18  22 09 20.435   +33 18 13.07  .02793 1.0292 138.5 10.8  59d 103
2024 09 05 19  21 58 14.273   +32 34 32.78  .02826 1.0294 138.3 10.8  59d 103
2024 09 05 20  21 47 35.060   +31 48 27.76  .02863 1.0296 138.1 10.8  60d 103
2024 09 05 21  21 37 23.785   +31 00 29.80  .02905 1.0297 137.7 10.9  60d 103
2024 09 05 22  21 27 40.915   +30 11 09.21  .02952 1.0299 137.3 10.9  61d 103
2024 09 05 23  21 18 26.466   +29 20 54.15  .03003 1.0301 136.7 11.0  61d 103
2024 09 06 00  21 09 40.085   +28 30 10.17  .03058 1.0303 136.2 11.0  62d 103
2024 09 06 01  21 01 21.121   +27 39 19.89  .03117 1.0305 135.5 11.1  62d 102
2024 09 06 02  20 53 28.704   +26 48 42.96  .03180 1.0307 134.8 11.2  63d 102
2024 09 06 03  20 46 01.800   +25 58 36.10  .03247 1.0309 134.1 11.2  64d 102
2024 09 06 04  20 38 59.269   +25 09 13.18  .03316 1.0311 133.4 11.3  64d 102
2024 09 06 05  20 32 19.906   +24 20 45.50  .03389 1.0313 132.7 11.3  64d 102
2024 09 06 06  20 26 02.480   +23 33 22.00  .03465 1.0314 131.9 11.4  65d 102
2024 09 06 07  20 20 05.756   +22 47 09.54  .03543 1.0316 131.2 11.5  65d 102
2024 09 06 08  20 14 28.520   +22 02 13.16  .03624 1.0318 130.4 11.6  66d 102
2024 09 06 09  20 09 09.593   +21 18 36.36  .03708 1.0320 129.7 11.6  66d 102
2024 09 06 10  20 04 07.841   +20 36 21.30  .03793 1.0322 128.9 11.7  67d 102
2024 09 06 11  19 59 22.183   +19 55 29.06  .03881 1.0324 128.2 11.8  67d 101
2024 09 06 12  19 54 51.594   +19 15 59.83  .03971 1.0326 127.5 11.8  67d 101
2024 09 06 13  19 50 35.106   +18 37 53.05  .04062 1.0327 126.8 11.9  68d 101
2024 09 06 14  19 46 31.812   +18 01 07.60  .04155 1.0329 126.1 12.0  68d 101
2024 09 06 15  19 42 40.861   +17 25 41.90  .04250 1.0331 125.5 12.0  68d 101
2024 09 06 16  19 39 01.459   +16 51 34.02  .04346 1.0333 124.8 12.1  68d 101
2024 09 06 17  19 35 32.865   +16 18 41.79  .04443 1.0335 124.2 12.2  69d 101
2024 09 06 18  19 32 14.391   +15 47 02.84  .04542 1.0337 123.6 12.2  69d 101
2024 09 06 19  19 29 05.395   +15 16 34.68  .04642 1.0339 123.0 12.3  69d 101
2024 09 06 20  19 26 05.281   +14 47 14.77  .04743 1.0340 122.5 12.3  69d 101
2024 09 06 21  19 23 13.496   +14 19 00.51  .04845 1.0342 121.9 12.4  70d 101
2024 09 06 22  19 20 29.527   +13 51 49.31  .04949 1.0344 121.4 12.5  70d 101
2024 09 06 23  19 17 52.895   +13 25 38.61  .05053 1.0346 120.8 12.5  70d 101
2024 09 07 00  19 15 23.159   +13 00 25.89  .05158 1.0348 120.3 12.6  70d 101
2024 09 07 01  19 12 59.906   +12 36 08.68  .05264 1.0350 119.8 12.6  70d 101
2024 09 07 02  19 10 42.754   +12 12 44.61  .05370 1.0352 119.4 12.7  71d 101
2024 09 07 03  19 08 31.348   +11 50 11.35  .05477 1.0353 118.9 12.8  71d 101
2024 09 07 04  19 06 25.358   +11 28 26.66  .05585 1.0355 118.5 12.8  71d 101
2024 09 07 05  19 04 24.475   +11 07 28.41  .05694 1.0357 118.0 12.9  71d 101
2024 09 07 06  19 02 28.414   +10 47 14.53  .05803 1.0359 117.6 12.9  71d 101
2024 09 07 07  19 00 36.908   +10 27 43.06  .05913 1.0361 117.2 13.0  71d 101
2024 09 07 08  18 58 49.708   +10 08 52.09  .06023 1.0363 116.8 13.0  71d 101
2024 09 07 09  18 57 06.582   +09 50 39.84  .06134 1.0364 116.4 13.1  71d 101
2024 09 07 10  18 55 27.315   +09 33 04.59  .06246 1.0366 116.1 13.1  72d 101
2024 09 07 11  18 53 51.703   +09 16 04.70  .06358 1.0368 115.7 13.2  72d 101
2024 09 07 12  18 52 19.559   +08 59 38.62  .06470 1.0370 115.3 13.2  72d 101
2024 09 07 13  18 50 50.704   +08 43 44.85  .06582 1.0372 115.0 13.3  72d 101
2024 09 07 14  18 49 24.973   +08 28 22.01  .06696 1.0374 114.7 13.3  72d 101
2024 09 07 15  18 48 02.211   +08 13 28.73  .06809 1.0375 114.3 13.3  72d 101
2024 09 07 16  18 46 42.273   +07 59 03.76  .06923 1.0377 114.0 13.4  72d 101
2024 09 07 17  18 45 25.023   +07 45 05.88  .07037 1.0379 113.7 13.4  72d 101